SV1RVP-13 Weather Reports


Display with metric or nautical units.
time (UTC)temp
F
wind
direction
speed
MPH
gust
MPH
rain 1hr
in
rain 24hr
in
rain mn
in
humidity
%
barometer
mb
20260508074843 69 188 3.0 0.0 0.00 0.00 0.00 58 1018.8
20260508073847 69 147 3.0 0.0 0.00 0.00 0.00 57 1018.8
20260508072834 69 216 3.0 0.0 0.00 0.00 0.00 55 1018.9
20260508071839 68 333 3.0 0.0 0.00 0.00 0.00 55 1019.0
20260508070828 68 192 2.0 0.0 0.00 0.00 0.00 55 1019.2
20260508065844 68 131 3.0 0.0 0.00 0.00 0.00 53 1019.4
20260508064829 68 205 2.0 0.0 0.00 0.00 0.00 52 1019.5
20260508063855 68 199 2.0 0.0 0.00 0.00 0.00 51 1019.3
20260508062842 68 177 2.0 0.0 0.00 0.00 0.00 50 1019.0
20260508061843 68 210 2.0 0.0 0.00 0.00 0.00 49 1019.0
20260508060837 69 244 2.0 0.0 0.00 0.00 0.00 48 1018.6
20260508055837 69 210 2.0 0.0 0.00 0.00 0.00 46 1018.4
20260508054840 68 234 2.0 0.0 0.00 0.00 0.00 46 1017.8
20260508053831 68 252 1.0 0.0 0.00 0.00 0.00 47 1017.5
20260508052831 68 244 1.0 0.0 0.00 0.00 0.00 47 1017.4
20260508051851 68 260 1.0 0.0 0.00 0.00 0.00 48 1017.2
20260508050843 68 227 1.0 0.0 0.00 0.00 0.00 50 1017.1
20260508045838 68 205 1.0 0.0 0.00 0.00 0.00 51 1017.0
20260508044842 67 194 1.0 0.0 0.00 0.00 0.00 54 1017.0
20260508043834 67 233 0.0 0.0 0.00 0.00 0.00 59 1017.0
20260508042831 67 233 1.0 0.0 0.00 0.00 0.00 59 1016.8
20260508041856 67 330 0.0 0.0 0.00 0.00 0.00 60 1016.6
20260508040827 67 330 1.0 0.0 0.00 0.00 0.00 60 1016.3
20260508035843 67 341 2.0 0.0 0.00 0.00 0.00 60 1016.2
20260508034843 67 5 1.0 0.0 0.00 0.00 0.00 60 1015.9
20260508033832 67 360 1.0 0.0 0.00 0.00 0.00 60 1016.0
20260508032828 67 360 1.0 0.0 0.00 0.00 0.00 59 1015.9
20260508031849 67 22 1.0 0.0 0.00 0.00 0.00 60 1016.0
20260508030838 67 22 0.0 0.0 0.00 0.00 0.00 60 1016.0
20260508025833 67 349 1.0 0.0 0.00 0.00 0.00 61 1015.9
20260508024834 67 350 1.0 0.0 0.00 0.00 0.00 60 1016.2
20260508023855 66 292 0.0 0.0 0.00 0.00 0.00 61 1016.0
20260508022827 67 292 0.0 0.0 0.00 0.00 0.00 60 1016.1
20260508021856 67 292 0.0 0.0 0.00 0.00 0.00 59 1016.3
20260508020827 67 292 1.0 0.0 0.00 0.00 0.00 58 1016.2
20260508015844 67 306 1.0 0.0 0.00 0.00 0.00 57 1016.2
20260508014845 67 24 0.0 0.0 0.00 0.00 0.00 57 1016.1
20260508013835 67 180 0.0 0.0 0.00 0.00 0.00 57 1016.3
20260508012834 67 180 0.0 0.0 0.00 0.00 0.00 58 1016.4
20260508011829 67 182 1.0 0.0 0.00 0.00 0.00 59 1016.5
20260508010835 67 190 1.0 0.0 0.00 0.00 0.00 60 1016.6
20260508005831 67 185 1.0 0.0 0.00 0.00 0.00 61 1016.7
20260508004853 67 169 1.0 0.0 0.00 0.00 0.00 61 1016.9
20260508003823 67 186 1.0 0.0 0.00 0.00 0.00 61 1016.9
20260508002844 67 148 0.0 0.0 0.00 0.00 0.00 62 1016.8
20260508001837 66 236 0.0 0.0 0.00 0.00 0.00 65 1016.9
20260508000840 66 236 0.0 0.0 0.00 0.00 0.00 65 1016.8
20260507235838 66 236 0.0 0.0 0.00 0.00 0.00 65 1016.8
20260507234830 67 243 1.0 0.0 0.00 0.00 0.00 65 1017.0
20260507233830 67 228 1.0 0.0 0.00 0.00 0.00 64 1017.2
20260507232848 67 205 1.0 0.0 0.00 0.00 0.00 64 1017.4
20260507231843 67 221 2.0 0.0 0.00 0.00 0.00 64 1017.5
20260507230846 67 203 2.0 0.0 0.00 0.00 0.00 65 1017.3
20260507225841 67 149 1.0 0.0 0.00 0.00 0.00 66 1017.4
20260507224834 67 149 2.0 0.0 0.00 0.00 0.00 65 1017.6
20260507223833 67 211 2.0 0.0 0.00 0.00 0.00 64 1017.8
20260507222827 67 224 2.0 0.0 0.00 0.00 0.00 63 1017.8
20260507221827 67 202 2.0 0.0 0.00 0.00 0.00 62 1017.7
20260507220829 67 207 2.0 0.0 0.00 0.00 0.00 62 1017.7
20260507215849 67 180 3.0 0.0 0.00 0.00 0.00 61 1017.8
20260507214839 67 198 2.0 0.0 0.00 0.00 0.00 60 1018.1
20260507213842 67 156 3.0 0.0 0.00 0.00 0.00 59 1018.1
20260507212836 68 126 2.0 0.0 0.00 0.00 0.00 58 1018.2
20260507211833 68 198 3.0 0.0 0.00 0.00 0.00 58 1018.2
20260507210831 68 133 2.0 0.0 0.00 0.00 0.00 55 1018.2
20260507205849 68 170 3.0 0.0 0.00 0.00 0.00 53 1018.3
20260507204844 68 147 3.0 0.0 0.00 0.00 0.00 51 1018.1
20260507203844 69 173 2.0 0.0 0.00 0.00 0.00 49 1018.2
20260507202832 69 195 2.0 0.0 0.00 0.00 0.00 47 1018.3
20260507201832 69 100 1.0 0.0 0.00 0.00 0.00 45 1018.1
20260507200832 69 215 2.0 0.0 0.00 0.00 0.00 44 1018.1
20260507195849 70 163 2.0 0.0 0.00 0.00 0.00 42 1017.9
20260507194843 70 200 1.0 0.0 0.00 0.00 0.00 42 1018.1
20260507193827 70 160 1.0 0.0 0.00 0.00 0.00 42 1017.9
20260507192855 70 219 0.0 0.0 0.00 0.00 0.00 42 1017.9
20260507191839 70 246 1.0 0.0 0.00 0.00 0.00 42 1017.9
20260507190838 70 206 0.0 0.0 0.00 0.00 0.00 43 1017.7
20260507185826 70 206 1.0 0.0 0.00 0.00 0.00 44 1017.6
20260507184833 69 187 1.0 0.0 0.00 0.00 0.00 46 1017.8
20260507183835 69 151 0.0 0.0 0.00 0.00 0.00 47 1017.8
20260507182826 69 250 1.0 0.0 0.00 0.00 0.00 48 1017.6
20260507181845 69 179 1.0 0.0 0.00 0.00 0.00 48 1017.7
20260507180845 69 79 2.0 0.0 0.00 0.00 0.00 48 1017.6
20260507175835 69 169 2.0 0.0 0.00 0.00 0.00 49 1017.7
20260507174838 69 242 3.0 0.0 0.00 0.00 0.00 49 1017.5
20260507173838 69 158 4.0 0.0 0.00 0.00 0.00 50 1017.4
20260507172828 70 186 3.0 0.0 0.00 0.00 0.00 49 1017.7
20260507171829 70 206 3.0 0.0 0.00 0.00 0.00 48 1017.7
20260507170852 71 266 3.0 0.0 0.00 0.00 0.00 45 1017.5
20260507165838 71 198 3.0 0.0 0.00 0.00 0.00 44 1017.2
20260507164845 72 146 3.0 0.0 0.00 0.00 0.00 43 1016.9
20260507163956 72 159 3.0 0.0 0.00 0.00 0.00 42 1017.0
20260507162837 72 109 2.0 0.0 0.00 0.00 0.00 42 1017.2
20260507161837 72 194 3.0 0.0 0.00 0.00 0.00 44 1017.1
20260507160827 72 234 2.0 0.0 0.00 0.00 0.00 44 1017.1
20260507155845 73 136 3.0 0.0 0.00 0.00 0.00 44 1017.1
20260507154828 73 162 3.0 0.0 0.00 0.00 0.00 43 1017.2
20260507153948 73 194 3.0 0.0 0.00 0.00 0.00 45 1017.2
20260507153852 73 194 3.0 0.0 0.00 0.00 0.00 45 1017.2
20260507153149 73 163 4.0 0.0 0.00 0.00 0.00 45 1017.4
20260507152843 73 163 4.0 0.0 0.00 0.00 0.00 45 1017.4
20260507152534 73 239 3.0 0.0 0.00 0.00 0.00 46 1017.6
20260507151841 73 239 3.0 0.0 0.00 0.00 0.00 46 1017.6
20260507150854 73 168 3.0 0.0 0.00 0.00 0.00 47 1017.5
20260507145853 73 127 3.0 0.0 0.00 0.00 0.00 47 1017.5
20260507144840 73 196 4.0 0.0 0.00 0.00 0.00 46 1017.5
20260507143829 74 193 4.0 0.0 0.00 0.00 0.00 46 1017.7
20260507142840 74 195 3.0 0.0 0.00 0.00 0.00 45 1017.6
20260507141845 74 246 4.0 0.0 0.00 0.00 0.00 44 1017.5
20260507140852 74 166 5.0 0.0 0.00 0.00 0.00 43 1017.4
20260507135857 75 169 4.0 0.0 0.00 0.00 0.00 43 1017.2
20260507134253 75 209 4.0 0.0 0.00 0.00 0.00 42 1017.3
20260507132943 76 189 5.0 0.0 0.00 0.00 0.00 40 1017.0
20260507131856 76 223 5.0 0.0 0.00 0.00 0.00 43 1017.0
20260507130837 75 194 3.0 0.0 0.00 0.00 0.00 44 1017.1
20260507125831 75 165 4.0 0.0 0.00 0.00 0.00 47 1017.2
20260507124849 75 148 3.0 0.0 0.00 0.00 0.00 47 1017.4
20260507123840 75 125 3.0 0.0 0.00 0.00 0.00 49 1017.5
20260507122841 75 140 3.0 0.0 0.00 0.00 0.00 49 1017.7
20260507121840 75 192 3.0 0.0 0.00 0.00 0.00 53 1017.8
20260507120850 75 224 4.0 0.0 0.00 0.00 0.00 50 1017.8
20260507115837 76 192 5.0 0.0 0.00 0.00 0.00 48 1017.8
20260507114843 76 186 3.0 0.0 0.00 0.00 0.00 51 1017.6
20260507113846 75 185 3.0 0.0 0.00 0.00 0.00 56 1017.9
20260507112835 73 161 5.0 0.0 0.00 0.00 0.00 62 1018.0
20260507111835 74 173 4.0 0.0 0.00 0.00 0.00 63 1018.0
20260507110852 73 173 4.0 0.0 0.00 0.00 0.00 62 1018.2
20260507105837 74 213 5.0 0.0 0.00 0.00 0.00 60 1018.0
20260507104836 75 209 5.0 0.0 0.00 0.00 0.00 58 1017.9
20260507103838 76 215 4.0 0.0 0.00 0.00 0.00 57 1017.9
20260507102827 76 159 3.0 0.0 0.00 0.00 0.00 58 1017.5
20260507101830 75 177 4.0 0.0 0.00 0.00 0.00 63 1017.4
20260507100844 74 35 3.0 0.0 0.00 0.00 0.00 66 1017.6
20260507095826 72 229 4.0 0.0 0.00 0.00 0.00 71 1017.6
20260507094830 72 182 3.0 0.0 0.00 0.00 0.00 70 1017.6
20260507093829 72 219 2.0 0.0 0.00 0.00 0.00 70 1017.6
20260507092849 73 175 3.0 0.0 0.00 0.00 0.00 66 1017.8
20260507091836 72 236 4.0 0.0 0.00 0.00 0.00 65 1017.7
20260507090830 73 250 3.0 0.0 0.00 0.00 0.00 65 1017.7
20260507085850 73 167 2.0 0.0 0.00 0.00 0.00 63 1017.5
20260507084843 72 178 2.0 0.0 0.00 0.00 0.00 62 1017.5
20260507083842 73 171 2.0 0.0 0.00 0.00 0.00 61 1017.7
20260507082841 72 196 2.0 0.0 0.00 0.00 0.00 62 1017.5
20260507081829 71 183 2.0 0.0 0.00 0.00 0.00 62 1017.5
20260507080845 71 221 2.0 0.0 0.00 0.00 0.00 60 1017.5
20260507075839 71 202 2.0 0.0 0.00 0.00 0.00 57 1017.5